CW6242 Weather Reports


time (UTC)temp
F
wind
direction
speed
knots
gust
knots
rain 1hr
in
rain 24hr
in
rain mn
in
humidity
%
barometer
mb
20260906105957 83 45 3.5 7.0 0.00 0.00 0.00 68 1020.2
20260906104957 83 45 4.3 7.8 0.00 0.00 0.00 71 1020.4
20260906103957 83 45 3.5 7.0 0.00 0.00 0.00 70 1020.5
20260906102957 83 45 3.5 7.0 0.00 0.00 0.00 70 1020.6
20260906102017 83 45 4.3 7.8 0.00 0.00 0.00 70 1020.6
20260906100956 83 45 4.3 7.8 0.00 0.00 0.00 71 1020.6
20260906100019 83 45 4.3 7.8 0.00 0.00 0.00 71 1020.6
20260906095019 83 45 4.3 8.7 0.00 0.00 0.00 71 1020.7
20260906093959 83 45 5.2 9.6 0.00 0.00 0.00 72 1020.6
20260906093019 83 45 5.2 9.6 0.00 0.00 0.00 72 1020.7
20260906092019 83 45 5.2 9.6 0.00 0.00 0.00 72 1020.7
20260906090958 83 45 4.3 9.6 0.00 0.00 0.00 71 1020.8
20260906090001 82 45 4.3 8.7 0.00 0.00 0.00 73 1020.8
20260906085000 83 45 5.2 8.7 0.00 0.00 0.00 73 1020.8
20260906084001 83 45 4.3 8.7 0.00 0.00 0.00 73 1020.7
20260906083000 82 45 4.3 8.7 0.00 0.00 0.00 73 1020.6
20260906082001 82 45 4.3 9.6 0.00 0.00 0.00 73 1020.6
20260906081000 82 45 4.3 7.8 0.00 0.00 0.00 71 1020.7
20260906080001 82 45 4.3 7.8 0.00 0.00 0.00 72 1020.6
20260906075002 82 45 4.3 7.8 0.00 0.00 0.00 72 1020.6
20260906074002 81 45 3.5 7.8 0.00 0.00 0.00 73 1020.4
20260906073022 82 68 3.5 6.1 0.00 0.00 0.00 73 1020.4
20260906072023 81 23 3.5 7.8 0.00 0.00 0.00 76 1020.2
20260906071002 80 45 3.5 7.8 0.00 0.00 0.00 77 1020.3
20260906070002 80 68 3.5 7.0 0.00 0.00 0.00 76 1020.3
20260906065004 80 45 3.5 6.1 0.00 0.00 0.00 76 1020.2
20260906064024 79 68 3.5 7.0 0.00 0.00 0.00 77 1020.0
20260906063004 79 68 3.5 6.1 0.00 0.00 0.00 77 1020.0
20260906062004 79 68 2.6 7.0 0.00 0.00 0.00 78 1020.0
20260906061004 79 90 1.7 3.5 0.00 0.00 0.00 78 1020.0
20260906060024 78 113 1.7 4.3 0.00 0.00 0.00 79 1020.0
20260906055006 77 158 0.9 2.6 0.00 0.00 0.00 78 1019.9
20260906054006 76 158 1.7 4.3 0.00 0.00 0.00 77 1019.8
20260906053006 75 158 1.7 4.3 0.00 0.00 0.00 77 1019.8
20260906052006 75 180 0.9 2.6 0.00 0.00 0.00 76 1019.7
20260906051026 75 180 0.9 1.7 0.00 0.00 0.00 76 1019.6
20260906050006 74 180 0.9 2.6 0.00 0.00 0.00 75 1019.5
20260906045006 74 180 1.7 3.5 0.00 0.00 0.00 75 1019.5
20260906044048 73 180 1.7 2.6 0.00 0.00 0.00 74 1019.5
20260906043008 73 180 1.7 2.6 0.00 0.00 0.00 76 1019.4
20260906042008 73 180 1.7 2.6 0.00 0.00 0.00 76 1019.4
20260906041008 72 180 1.7 2.6 0.00 0.00 0.00 77 1019.2
20260906040008 74 0.0 0.9 0.00 0.00 0.00 84 1019.3
20260906035008 74 0.0 1.7 0.00 0.00 0.00 84 1019.2
20260906034010 75 90 0.9 1.7 0.00 0.00 0.00 84 1019.1
20260906033010 75 90 0.9 1.7 0.00 0.00 0.00 84 1019.1
20260906032010 75 0.0 1.7 0.00 0.00 0.00 83 1019.0
20260906031030 75 0.0 1.7 0.00 0.00 0.00 83 1019.2
20260906030010 75 0.0 1.7 0.00 0.00 0.00 82 1019.2
20260906025030 75 0.0 1.7 0.00 0.00 0.00 82 1019.2
20260906024012 75 113 0.9 2.6 0.00 0.00 0.00 80 1019.2
20260906023012 75 0.0 1.7 0.00 0.00 0.00 78 1019.3
20260906022012 76 0.0 1.7 0.00 0.00 0.00 77 1019.3
20260906021011 75 0.0 1.7 0.00 0.00 0.00 74 1019.3
20260906020012 74 158 0.9 4.3 0.00 0.00 0.00 70 1019.2
20260906015012 74 158 2.6 5.2 0.00 0.00 0.00 70 1019.3
20260906014013 74 158 1.7 7.0 0.00 0.00 0.00 68 1019.4
20260906013014 74 180 2.6 7.0 0.00 0.00 0.00 68 1019.4
20260906012014 74 203 1.7 3.5 0.00 0.00 0.00 67 1019.6
20260906011034 75 203 0.9 1.7 0.00 0.00 0.00 71 1019.7
20260906010034 74 203 1.7 2.6 0.00 0.00 0.00 71 1019.6
20260906005013 76 0.0 1.7 0.00 0.00 0.00 79 1019.7
20260906004033 77 0.0 0.9 0.00 0.00 0.00 77 1019.7
20260906003016 77 180 0.9 1.7 0.00 0.00 0.00 74 1019.8
20260906002016 75 180 0.9 2.6 0.00 0.00 0.00 64 1019.6
20260906001015 74 180 2.6 4.3 0.00 0.00 0.00 62 1019.5
20260906000015 75 180 1.7 4.3 0.00 0.00 0.00 61 1019.7
20260905235035 75 180 1.7 3.5 0.00 0.00 0.00 61 1019.8
20260905234015 75 180 2.6 3.5 0.00 0.00 0.00 61 1019.9
20260905233018 75 180 1.7 3.5 0.00 0.00 0.00 62 1019.8
20260905231933 75 180 1.7 3.5 0.00 0.00 0.00 61 1019.9
20260905230933 75 180 1.7 3.5 0.00 0.00 0.00 60 1019.8
20260905225933 75 180 1.7 3.5 0.00 0.00 0.00 60 1019.9
20260905224955 75 180 1.7 3.5 0.00 0.00 0.00 62 1019.9
20260905224015 76 180 0.9 3.5 0.00 0.00 0.00 71 1020.0
20260905222935 77 180 0.9 1.7 0.00 0.00 0.00 76 1020.2
20260905221935 77 0.0 0.9 0.00 0.00 0.00 74 1020.2
20260905220935 76 180 0.9 2.6 0.00 0.00 0.00 68 1020.2
20260905215937 76 180 1.7 3.5 0.00 0.00 0.00 63 1020.1
20260905214937 76 180 1.7 2.6 0.00 0.00 0.00 65 1020.0
20260905213936 76 180 1.7 3.5 0.00 0.00 0.00 63 1020.0
20260905212956 75 180 2.6 3.5 0.00 0.00 0.00 65 1020.0
20260905211938 75 180 2.6 4.3 0.00 0.00 0.00 66 1020.1
20260905210938 75 180 1.7 3.5 0.00 0.00 0.00 71 1020.1
20260905205938 77 0.0 0.9 0.00 0.00 0.00 78 1020.3
20260905204938 77 0.0 0.9 0.00 0.00 0.00 77 1020.3
20260905203938 77 0.0 0.9 0.00 0.00 0.00 76 1020.3
20260905202938 76 158 0.9 3.5 0.00 0.00 0.00 74 1020.3
20260905201938 76 135 1.7 4.3 0.00 0.00 0.00 73 1020.3
20260905201000 76 135 1.7 4.3 0.00 0.00 0.00 74 1020.3
20260905195940 76 135 0.9 2.6 0.00 0.00 0.00 76 1020.3
20260905194940 77 135 1.7 5.2 0.00 0.00 0.00 75 1020.3
20260905194000 77 135 2.6 6.1 0.00 0.00 0.00 73 1020.4
20260905192940 76 135 2.6 6.1 0.00 0.00 0.00 73 1020.4
20260905191940 77 135 2.6 7.0 0.00 0.00 0.00 73 1020.3
20260905190942 77 135 2.6 6.1 0.00 0.00 0.00 73 1020.1
20260905185942 77 135 0.9 2.6 0.00 0.00 0.00 73 1020.1
20260905184942 78 45 0.9 1.7 0.00 0.00 0.00 73 1020.0
20260905184002 78 23 0.9 2.6 0.00 0.00 0.00 73 1020.0
20260905182942 78 45 0.9 2.6 0.00 0.00 0.00 73 1019.8
20260905181942 78 45 1.7 3.5 0.00 0.00 0.00 72 1019.7
20260905180944 78 45 1.7 3.5 0.00 0.00 0.00 73 1019.5
20260905175944 78 90 2.6 5.2 0.00 0.00 0.00 73 1019.4
20260905175004 78 90 1.7 5.2 0.00 0.00 0.00 72 1019.4
20260905173944 79 45 1.7 4.3 0.00 0.00 0.00 72 1019.4
20260905172944 79 45 2.6 4.3 0.00 0.00 0.00 72 1019.3
20260905172004 79 45 3.5 6.1 0.00 0.00 0.00 72 1019.4
20260905170946 79 45 2.6 4.3 0.00 0.00 0.00 72 1019.4
20260905165946 79 45 2.6 5.2 0.00 0.00 0.00 72 1019.3
20260905164946 79 45 2.6 5.2 0.00 0.00 0.00 72 1019.3
20260905164026 79 45 2.6 4.3 0.00 0.00 0.00 71 1019.4
20260905162946 80 45 1.7 3.5 0.00 0.00 0.00 71 1019.4
20260905161946 80 23 1.7 4.3 0.00 0.00 0.00 71 1019.4
20260905160946 80 45 2.6 4.3 0.00 0.00 0.00 71 1019.4
20260905155948 80 45 2.6 5.2 0.00 0.00 0.00 71 1019.5
20260905154948 80 45 2.6 5.2 0.00 0.00 0.00 71 1019.5
20260905153948 80 45 2.6 6.1 0.00 0.00 0.00 71 1019.5
20260905152948 80 45 3.5 6.1 0.00 0.00 0.00 71 1019.6
20260905151948 80 45 3.5 6.1 0.00 0.00 0.00 71 1019.6
20260905150947 80 45 3.5 7.0 0.00 0.00 0.00 73 1019.4
20260905145950 80 45 3.5 7.8 0.00 0.00 0.00 74 1019.4
20260905144950 81 45 3.5 7.0 0.00 0.00 0.00 75 1019.5
20260905143950 81 45 4.3 7.0 0.00 0.00 0.00 73 1019.5
20260905142950 81 45 5.2 8.7 0.00 0.00 0.00 72 1019.5
20260905141949 81 45 5.2 9.6 0.00 0.00 0.00 71 1019.5
20260905140950 81 45 5.2 9.6 0.00 0.00 0.00 71 1019.4
20260905135952 81 45 5.2 10.4 0.00 0.00 0.00 73 1019.4
20260905134951 82 45 5.2 9.6 0.00 0.00 0.00 71 1019.3
20260905134012 82 45 5.2 8.7 0.00 0.00 0.00 70 1019.3
20260905132951 82 45 4.3 7.8 0.00 0.00 0.00 69 1019.3
20260905131951 82 45 5.2 8.7 0.00 0.00 0.00 70 1019.4
20260905130951 83 45 5.2 8.7 0.00 0.00 0.00 70 1019.5
20260905125953 83 45 4.3 8.7 0.00 0.00 0.00 68 1019.6
20260905125034 83 45 4.3 7.8 0.00 0.00 0.00 69 1019.6
20260905123953 83 45 4.3 7.8 0.00 0.00 0.00 71 1019.5
20260905122953 83 45 4.3 9.6 0.00 0.00 0.00 71 1019.6
20260905122014 84 45 3.5 7.0 0.00 0.00 0.00 72 1019.7
20260905120953 83 45 3.5 7.8 0.00 0.00 0.00 71 1019.7
20260905115953 83 45 3.5 7.8 0.00 0.00 0.00 71 1019.8
20260905114955 83 45 4.3 7.8 0.00 0.00 0.00 71 1019.8
20260905113955 84 45 3.5 7.8 0.00 0.00 0.00 72 1019.8
20260905113015 84 45 3.5 6.1 0.00 0.00 0.00 71 1019.9
20260905111955 84 45 3.5 5.2 0.00 0.00 0.00 71 1019.9
20260905110955 83 68 3.5 8.7 0.00 0.00 0.00 72 1020.0